Andrews, NC

6:14 PM EDT on April 30, 2017 (GMT -0400)
Andrews

Weather History for KRHP - April, 2012

Change the Weather History Date:

Wednesday, April 11, 2012

  Actual Average (KMMI) Record (KMMI)
Temperature  
Mean Temperature 50 °F -  
Max Temperature 60 °F 68 °F 80 °F (2017)
Min Temperature 39 °F 39 °F 37 °F (2016)
Degree Days  
Heating Degree Days 16    
Moisture  
Dew Point 28 °F    
Average Humidity 43    
Maximum Humidity 76    
Minimum Humidity 23    
Precipitation  
Precipitation 0.00 in - - ()
Sea Level Pressure  
Sea Level Pressure 30.07 in    
Wind  
Wind Speed 5 mph (North)    
Max Wind Speed 15 mph    
Max Gust Speed 21 mph    
Visibility 10 miles    
Events      
Averages and records for this station are not official NWS values.
T = Trace of Precipitation, MM = Missing Value Source: NWS Daily Summary

Daily Weather History Graph

Daily Weather History Graph

Search for Another Location

Airport or City:

Trip Planner

Search our weather history database for the weather conditions in past years. The results will help you decide how hot, cold, wet, or windy it might be!

Date:

Astronomy

Apr. 11, 2012 Rise Set
Actual Time 7:07 AM EDT 8:05 PM EDT
Civil Twilight 6:41 AM EDT 8:31 PM EDT
Nautical Twilight 6:11 AM EDT 9:02 PM EDT
Astronomical Twilight 5:39 AM EDT 9:33 PM EDT
Moon 12:51 AM EDT (4/11) 11:03 AM EDT (4/11)
Length of Visible Light 13h 49m
Length of Day
12h 57m
Waning Gibbous, 69% of the Moon is Illuminated
Apr 11
Waning Gibbous
Apr 13
Last Quarter
Apr 21
New
Apr 29
First Quarter
May 5
Full

Hourly Weather History & Observations

Time (EDT) Temp. Windchill Dew Point Humidity Pressure Visibility Wind Dir Wind Speed Gust Speed Precip Events Conditions
12:15 AM 44.6 °F - 37.4 °F 76% 30.03 in 10.0 mi Calm Calm - N/A   Unknown
12:55 AM 50.0 °F - 30.2 °F 47% 30.03 in 10.0 mi North 10.4 mph 19.6 mph N/A   Unknown
1:15 AM 53.6 °F - 28.4 °F 38% 30.03 in 10.0 mi NNE 6.9 mph 16.1 mph N/A   Unknown
1:55 AM 50.0 °F - 30.2 °F 47% 30.03 in 10.0 mi NE 3.5 mph - N/A   Unknown
2:15 AM 50.0 °F - 28.4 °F 43% 30.03 in 10.0 mi NNE 4.6 mph - N/A   Unknown
2:35 AM 48.2 °F - 30.2 °F 50% 30.03 in 10.0 mi Calm Calm - N/A   Unknown
2:55 AM 46.4 °F 45.2 °F 30.2 °F 53% 30.03 in 10.0 mi NNE 3.5 mph - N/A   Unknown
3:15 AM 48.2 °F - 30.2 °F 50% 30.03 in 10.0 mi North 9.2 mph - N/A   Unknown
3:35 AM 46.4 °F 42.9 °F 28.4 °F 50% 30.03 in 10.0 mi NNE 6.9 mph - N/A   Unknown
3:55 AM 46.4 °F - 30.2 °F 53% 30.02 in 10.0 mi Calm Calm - N/A   Unknown
4:15 AM 46.4 °F - 28.4 °F 50% 30.03 in 10.0 mi Calm Calm - N/A   Unknown
4:35 AM 46.4 °F - 28.4 °F 50% 30.03 in 10.0 mi Calm Calm - N/A   Unknown
4:55 AM 44.6 °F - 28.4 °F 53% 30.04 in 10.0 mi Calm Calm - N/A   Unknown
5:15 AM 41.0 °F - 30.2 °F 65% 30.04 in 10.0 mi Calm Calm - N/A   Unknown
5:35 AM 41.0 °F - 30.2 °F 65% 30.04 in 10.0 mi Calm Calm - N/A   Unknown
5:55 AM 39.2 °F - 30.2 °F 70% 30.06 in 10.0 mi Calm Calm - N/A   Unknown
6:15 AM 39.2 °F - 30.2 °F 70% 30.06 in 10.0 mi Calm Calm - N/A   Unknown
6:35 AM 41.0 °F 39.0 °F 30.2 °F 65% 30.06 in 10.0 mi NNE 3.5 mph - N/A   Unknown
6:55 AM 39.2 °F - 28.4 °F 65% 30.07 in 10.0 mi Calm Calm - N/A   Unknown
7:15 AM 41.0 °F - 28.4 °F 61% 30.07 in 10.0 mi Calm Calm - N/A   Unknown
7:35 AM 39.2 °F - 28.4 °F 65% 30.07 in 10.0 mi Calm Calm - N/A   Unknown
7:55 AM 41.0 °F - 28.4 °F 61% 30.08 in 10.0 mi Calm Calm - N/A   Unknown
8:35 AM 50.0 °F - 23.0 °F 35% 30.08 in 10.0 mi North 5.8 mph - N/A   Unknown
8:55 AM 50.0 °F - 24.8 °F 37% 30.08 in 10.0 mi NNE 5.8 mph - N/A   Unknown
9:35 AM 51.8 °F - 23.0 °F 33% 30.09 in 10.0 mi North 9.2 mph - N/A   Unknown
9:55 AM 51.8 °F - 23.0 °F 33% 30.08 in 10.0 mi NNE 8.1 mph 17.3 mph N/A   Unknown
10:15 AM 53.6 °F - 26.6 °F 35% 30.08 in 10.0 mi NE 5.8 mph - N/A   Unknown
10:35 AM 53.6 °F - 23.0 °F 30% 30.08 in 10.0 mi Calm Calm - N/A   Unknown
10:55 AM 55.4 °F - 24.8 °F 31% 30.08 in 10.0 mi North 5.8 mph - N/A   Unknown
11:15 AM 55.4 °F - 26.6 °F 33% 30.08 in 10.0 mi ENE 8.1 mph - N/A   Unknown
11:35 AM 55.4 °F - 24.8 °F 31% 30.08 in 10.0 mi North 9.2 mph 17.3 mph N/A   Unknown
11:55 AM 55.4 °F - 24.8 °F 31% 30.08 in 10.0 mi North 8.1 mph 18.4 mph N/A   Unknown
12:15 PM 55.4 °F - 24.8 °F 31% 30.07 in 10.0 mi Calm Calm - N/A   Unknown
12:35 PM 59.0 °F - 21.2 °F 23% 30.07 in 10.0 mi NW 11.5 mph 16.1 mph N/A   Unknown
12:55 PM 59.0 °F - 23.0 °F 25% 30.06 in 10.0 mi NNW 12.7 mph 19.6 mph N/A   Unknown
1:15 PM 59.0 °F - 23.0 °F 25% 30.06 in 10.0 mi NW 11.5 mph 19.6 mph N/A   Unknown
1:35 PM 59.0 °F - 23.0 °F 25% 30.05 in 10.0 mi West 8.1 mph 17.3 mph N/A   Unknown
1:55 PM 59.0 °F - 23.0 °F 25% 30.06 in 10.0 mi NNW 9.2 mph 19.6 mph N/A   Unknown
2:35 PM 60.8 °F - 24.8 °F 25% 30.05 in 10.0 mi WNW 11.5 mph 17.3 mph N/A   Unknown
2:55 PM 60.8 °F - 28.4 °F 29% 30.06 in 10.0 mi NNW 11.5 mph 18.4 mph N/A   Unknown
3:15 PM 60.8 °F - 30.2 °F 31% 30.05 in 10.0 mi NW 5.8 mph 17.3 mph N/A   Unknown
3:35 PM 60.8 °F - 28.4 °F 29% 30.06 in 10.0 mi NNW 10.4 mph 18.4 mph N/A   Unknown
3:55 PM 60.8 °F - 26.6 °F 27% 30.05 in 10.0 mi WNW 8.1 mph 17.3 mph N/A   Unknown
4:15 PM 60.8 °F - 26.6 °F 27% 30.06 in 10.0 mi NW 15.0 mph 20.7 mph N/A   Unknown
4:35 PM 59.0 °F - 26.6 °F 29% 30.06 in 10.0 mi North 8.1 mph - N/A   Unknown
4:55 PM 60.8 °F - 28.4 °F 29% 30.06 in 10.0 mi North 9.2 mph 17.3 mph N/A   Unknown
5:15 PM 59.0 °F - 28.4 °F 31% 30.07 in 10.0 mi North 4.6 mph - N/A   Unknown
5:35 PM 59.0 °F - 28.4 °F 31% 30.07 in 10.0 mi North 9.2 mph 18.4 mph N/A   Unknown
5:55 PM 59.0 °F - 28.4 °F 31% 30.07 in 10.0 mi North 5.8 mph 17.3 mph N/A   Unknown
6:15 PM 59.0 °F - 28.4 °F 31% 30.07 in 10.0 mi NNW 8.1 mph 16.1 mph N/A   Unknown
6:35 PM 57.2 °F - 30.2 °F 36% 30.07 in 10.0 mi WNW 9.2 mph 18.4 mph N/A   Unknown
6:55 PM 57.2 °F - 30.2 °F 36% 30.07 in 10.0 mi NNE 8.1 mph - N/A   Unknown
7:15 PM 55.4 °F - 30.2 °F 38% 30.08 in 10.0 mi North 5.8 mph - N/A   Unknown
7:35 PM 55.4 °F - 30.2 °F 38% 30.08 in 10.0 mi North 9.2 mph - N/A   Unknown
7:55 PM 53.6 °F - 30.2 °F 41% 30.09 in 10.0 mi NNE 6.9 mph - N/A   Unknown
8:15 PM 51.8 °F - 30.2 °F 44% 30.10 in 10.0 mi North 11.5 mph 17.3 mph N/A   Unknown
8:35 PM 51.8 °F - 30.2 °F 44% 30.10 in 10.0 mi NE 5.8 mph - N/A   Unknown
8:55 PM 50.0 °F - 32.0 °F 50% 30.11 in 10.0 mi North 4.6 mph - N/A   Unknown
9:15 PM 50.0 °F - 28.4 °F 43% 30.13 in 10.0 mi North 9.2 mph - N/A   Unknown
9:35 PM 50.0 °F - 30.2 °F 47% 30.14 in 10.0 mi NNE 3.5 mph - N/A   Unknown
9:55 PM 48.2 °F - 30.2 °F 50% 30.14 in 10.0 mi NNE 9.2 mph - N/A   Unknown
10:15 PM 48.2 °F - 30.2 °F 50% 30.15 in 10.0 mi ENE 8.1 mph - N/A   Unknown
10:35 PM 48.2 °F - 30.2 °F 50% 30.15 in 10.0 mi NNE 9.2 mph 17.3 mph N/A   Unknown
10:55 PM 46.4 °F 42.9 °F 30.2 °F 53% 30.16 in 10.0 mi NNE 6.9 mph 17.3 mph N/A   Unknown
11:15 PM 44.6 °F 39.7 °F 30.2 °F 57% 30.16 in 10.0 mi NE 9.2 mph - N/A   Unknown
11:35 PM 44.6 °F 40.7 °F 30.2 °F 57% 30.16 in 10.0 mi NE 6.9 mph - N/A   Unknown
11:55 PM 44.6 °F 41.4 °F 30.2 °F 57% 30.17 in 10.0 mi NE 5.8 mph - N/A   Unknown